Location: Caltech
(34.1382°N, 118.1253°W)
Time: 07:42:11
(UTC-07:00)

Iridium 95 - Visible Passes

Search period start: 24 July 2016 00:00
Search period end: 03 August 2016 00:00
Orbit: 776 x 779 km, 86.4° (Epoch: 23 July)

Date Brightness Start Highest point End Pass type
(mag) Time Alt. Az. Time Alt. Az. Time Alt. Az.
24 Jul 5.5 20:28:42 10° N 20:33:54 67° E 20:39:04 10° S visible
24 Jul 8.5 22:12:36 10° WNW 22:13:55 11° WNW 22:15:14 10° W visible
25 Jul 7.9 21:36:48 10° NNW 21:40:43 22° W 21:44:38 10° SW visible
26 Jul 6.8 21:02:32 10° NNW 21:07:25 42° W 21:12:17 10° SSW visible
27 Jul 5.7 20:28:45 10° N 20:33:59 83° W 20:39:12 10° S visible
28 Jul 8.3 21:37:51 10° NW 21:40:38 15° W 21:43:25 10° WSW visible
29 Jul 7.6 21:03:00 10° NNW 21:07:24 28° W 21:11:47 10° SW visible
30 Jul 6.4 20:28:57 10° NNW 20:34:03 55° W 20:39:06 10° SSW visible
01 Aug 8.3 21:03:44 10° NW 21:07:20 19° W 21:10:56 10° SW visible
02 Aug 7.2 20:29:18 10° NNW 20:34:03 36° W 20:38:47 10° SSW visible
